[[{"header":{"parameterUnit":"m.s-1","parameterCategory":1,"la1":30.2991,"la2":30.254,"lo1":-89.0895,"lo2":-89.0444,"dy":0.0017,"dx":0.0017,"nx":28,"ny":28,"refTime":"2025-02-11T09:00:00:Z","depth":0,"parameterNumber":2,"parameterNumberName":"U-component_of_WINDS"},"data":[0,0,0,0,0,0,0,0,0,0,0,0,0,0,0,0,0,0,0,0,0,0,0,0,0,0,0,0,0,0,0,0,0,0,0,0,0,0,0,0,0,0,0,0,0,0,0,0,0,0,0,0,0,0,0,0,0,0,-0.6693,-0.6694,0,-0.6785,-0.6786,-0.6787,-0.683,-0.683,-0.683,-0.683,-0.692,-0.6923,-0.6925,0,0,0,0,0,0,0,0,0,0,0,0,0,-0.6551,-0.6554,-0.6693,-0.6694,-0.6695,-0.6785,-0.6786,-0.6787,-0.683,-0.683,-0.683,-0.683,-0.692,-0.6922,-0.6925,0,0,0,0,0,0,0,0,0,0,0,0,0,-0.6625,-0.6555,-0.6693,-0.6728,-0.6732,-0.6784,-0.6786,-0.6788,-0.683,-0.683,-0.683,-0.683,-0.6919,-0.6922,-0.6926,-0.695,0,0,-0.6937,-0.6939,0,0,0,0,0,0,0,0,-0.6621,-0.663,-0.6721,-0.6725,-0.673,-0.6796,-0.6769,-0.6842,-0.683,-0.6793,-0.683,-0.683,-0.6879,-0.6886,-0.6903,-0.6954,-0.6958,-0.6937,-0.694,-0.6941,-0.6942,0,0,0,0,0,0,0,-0.6615,-0.6626,-0.6729,-0.6723,-0.6728,-0.6737,-0.6748,-0.6783,-0.6835,-0.6796,-0.6799,-0.681,-0.6881,-0.6899,-0.6905,-0.6959,-0.6937,-0.6941,-0.6943,-0.6944,-0.7034,-0.7034,0,0,0,0,0,0,-0.6605,-0.6622,-0.6726,-0.6732,-0.6674,-0.674,-0.6752,-0.6775,-0.6835,-0.6844,-0.681,-0.6811,-0.6893,-0.6901,-0.6909,-0.6941,-0.6941,-0.6945,-0.6947,-0.7034,-0.7034,-0.7034,0,0,0,0,0,0,-0.6602,-0.6614,-0.6723,-0.6678,-0.6692,-0.6743,-0.6768,-0.6777,-0.6795,-0.6845,-0.6854,-0.6819,-0.6893,-0.6904,-0.6939,-0.6945,-0.6946,-0.695,-0.7034,-0.7034,-0.7034,-0.7005,0,0,0,0,0,0,-0.6598,-0.6613,-0.6623,-0.6678,-0.6695,-0.6753,-0.6769,-0.6778,-0.6802,-0.6805,-0.6856,-0.6865,-0.6894,-0.6934,-0.6943,-0.695,-0.6952,-0.7033,-0.7034,-0.7034,-0.7006,-0.7004,-0.7003,0,0,0,0,0,-0.6593,-0.6611,-0.6624,-0.6636,-0.6709,-0.6753,-0.6763,-0.6797,-0.6802,-0.6813,-0.6844,-0.6863,-0.6942,-0.6937,-0.6948,-0.6956,-0.7033,-0.7034,-0.7034,-0.7007,-0.7005,-0.7003,0,0,0,0,0,0,-0.6555,-0.6619,-0.6634,-0.6671,-0.6706,-0.676,-0.6775,-0.6794,-0.6829,-0.683,-0.687,-0.6881,-0.6913,-0.6938,-0.6931,-0.6982,-0.6989,-0.6992,-0.6965,-0.6963,-0.6962,-0.6956,-0.6956,0,0,0,0,0,-0.6551,-0.6583,-0.6636,-0.6664,-0.6681,-0.6725,-0.6745,-0.6768,-0.6807,-0.6822,-0.6856,-0.6891,-0.6924,-0.6945,-0.6978,-0.7009,-0.7021,-0.702,-0.7018,-0.7017,-0.7019,-0.7037,-0.7037,-0.7036,-0.7036,-0.7036,0,0,-0.6544,-0.6582,-0.66,-0.6657,-0.6688,-0.6718,-0.6737,-0.6769,-0.6792,-0.6826,-0.6863,-0.6889,-0.6931,-0.6964,-0.6981,-0.6986,-0.7022,-0.7018,-0.7016,-0.7019,-0.7037,-0.7037,-0.7037,-0.7036,-0.7036,-0.7036,0,0,-0.6545,-0.6578,-0.6604,-0.6634,-0.668,-0.6709,-0.6715,-0.6766,-0.6786,-0.6823,-0.6849,-0.6876,-0.6932,-0.6961,-0.6982,-0.6993,-0.7012,-0.7003,-0.6996,-0.7013,-0.7013,-0.7013,-0.7017,-0.7018,-0.7004,-0.7004,-0.7004,0,-0.653,-0.6578,-0.6615,-0.6645,-0.6669,-0.6703,-0.6729,-0.6756,-0.6809,-0.6825,-0.683,-0.69,-0.6931,-0.6971,-0.6974,-0.6991,-0.6998,-0.6998,-0.701,-0.7011,-0.7011,-0.7015,-0.7017,-0.7003,-0.7003,-0.7003,-0.7003,0,-0.6556,-0.6589,-0.6605,-0.6657,-0.6683,-0.671,-0.675,-0.6772,-0.6792,-0.682,-0.6857,-0.6894,-0.6935,-0.6946,-0.6967,-0.6989,-0.6991,-0.7002,-0.7011,-0.701,-0.7014,-0.7016,-0.7001,-0.7002,-0.7002,-0.7002,0,0,-0.6538,-0.661,-0.6615,-0.6639,-0.6691,-0.6717,-0.6745,-0.6787,-0.6804,-0.6839,-0.6864,-0.691,-0.6921,-0.6945,-0.6969,-0.6983,-0.6989,-0.6993,-0.6994,-0.6991,-0.7016,-0.7008,-0.7009,-0.7001,-0.7002,-0.7002,-0.7013,0,-0.6547,-0.6602,-0.6635,-0.6676,-0.6706,-0.6737,-0.6762,-0.6796,-0.6823,-0.6851,-0.688,-0.6912,-0.6924,-0.6939,-0.6955,-0.6985,-0.6995,-0.6985,-0.7024,-0.7025,-0.7013,-0.7011,-0.7003,-0.7011,-0.7015,-0.7015,-0.7015,0,-0.6566,-0.6601,-0.6645,-0.6694,-0.6708,-0.673,-0.6769,-0.6797,-0.6835,-0.6853,-0.688,-0.6904,-0.6934,-0.694,-0.6981,-0.6974,-0.6991,-0.7008,-0.701,-0.7015,-0.702,-0.7017,-0.7015,-0.7016,-0.7018,-0.7018,-0.7018,0,-0.6548,-0.6607,-0.6641,-0.666,-0.6717,-0.6732,-0.6756,-0.6795,-0.6817,-0.6851,-0.6866,-0.6903,-0.6923,-0.695,-0.6982,-0.6983,-0.7021,-0.7029,-0.7036,-0.7035,-0.7043,-0.7042,-0.7043,-0.7053,-0.7053,-0.7053,-0.7053,0,-0.6555,-0.6581,-0.6633,-0.6654,-0.6683,-0.672,-0.6747,-0.6774,-0.6808,-0.6834,-0.6862,-0.6885,-0.6927,-0.6954,-0.6979,-0.701,-0.7018,-0.7033,-0.704,-0.7031,-0.7029,-0.7044,-0.7044,-0.7054,-0.7053,-0.7053,-0.7053,0,-0.6541,-0.6577,-0.6616,-0.6667,-0.668,-0.6699,-0.6743,-0.6763,-0.6791,-0.6822,-0.6832,-0.6875,-0.6909,-0.6944,-0.6989,-0.7006,-0.7036,-0.7045,-0.7023,-0.7027,-0.7032,-0.7031,-0.7043,-0.7046,-0.7053,-0.7053,-0.7053,0,-0.6543,-0.6563,-0.6617,-0.6636,-0.666,-0.6691,-0.6714,-0.6751,-0.6773,-0.6819,-0.6833,-0.687,-0.6901,-0.6954,-0.6988,-0.7023,-0.7033,-0.7035,-0.7038,-0.7029,-0.7033,-0.7031,-0.7033,-0.7033,-0.7033,-0.7033,-0.7033,0,-0.6543,-0.656,-0.6593,-0.6631,-0.6658,-0.669,-0.6722,-0.6736,-0.6779,-0.6803,-0.6838,-0.6862,-0.6909,-0.6945,-0.6984,-0.7007,-0.7027,-0.7031,-0.7035,-0.7026,-0.7013,-0.702,-0.702,-0.7031,-0.7031,-0.7031,-0.7031,-0.7031,-0.6537,-0.6557,-0.6597,-0.6632,-0.6661,-0.669,-0.6712,-0.6743,-0.6773,-0.6815,-0.6834,-0.687,-0.6907,-0.6961,-0.6985,-0.7012,-0.7018,-0.7022,-0.7024,-0.7025,-0.7023,-0.7008,-0.7019,-0.7019,-0.7019,-0.7019,-0.702,0,-0.6539,-0.6567,-0.6598,-0.6643,-0.6671,-0.6687,-0.6724,-0.6745,-0.6777,-0.681,-0.684,-0.688,-0.6915,-0.6951,-0.6988,-0.7002,-0.7012,-0.7011,-0.701,-0.7015,-0.7016,-0.7009,-0.7002,-0.7002,-0.7002,-0.7002,-0.7002,-0.7002,-0.6543,-0.6577,-0.6598,-0.6646,-0.6673,-0.6709,-0.6728,-0.6755,-0.6782,-0.6826,-0.6855,-0.6879,-0.6914,-0.6953,-0.6984,-0.6994,-0.7006,-0.7002,-0.7014,-0.7014,-0.7015,-0.7017,-0.7011,-0.7004,-0.7004,-0.7012,-0.7012,-0.7012]},{"header":{"parameterUnit":"m.s-1","parameterCategory":1,"la1":30.2991,"la2":30.254,"lo1":-89.0895,"lo2":-89.0444,"dy":0.0017,"dx":0.0017,"nx":28,"ny":28,"refTime":"2025-02-11T09:00:00:Z","depth":0,"parameterNumber":3,"parameterNumberName":"V-component_of_WINDS"},"data":[0,0,0,0,0,0,0,0,0,0,0,0,0,0,0,0,0,0,0,0,0,0,0,0,0,0,0,0,0,0,0,0,0,0,0,0,0,0,0,0,0,0,0,0,0,0,0,0,0,0,0,0,0,0,0,0,0,0,6.4978,6.4978,0,6.5047,6.5048,6.5049,6.5076,6.5076,6.5075,6.5075,6.5146,6.5148,6.515,0,0,0,0,0,0,0,0,0,0,0,0,0,6.487,6.4871,6.4977,6.4978,6.4979,6.5047,6.5048,6.5049,6.5076,6.5076,6.5075,6.5075,6.5145,6.5148,6.515,0,0,0,0,0,0,0,0,0,0,0,0,0,6.4926,6.4872,6.4977,6.5001,6.5004,6.5047,6.5048,6.5049,6.5076,6.5076,6.5075,6.5075,6.5145,6.5148,6.5151,6.5176,0,0,6.516,6.5161,0,0,0,0,0,0,0,0,6.4922,6.4929,6.4997,6.4999,6.5003,6.5053,6.5036,6.5092,6.5076,6.5048,6.5075,6.5075,6.5115,6.5121,6.5134,6.5179,6.5182,6.516,6.5162,6.5164,6.5164,0,0,0,0,0,0,0,6.4918,6.4927,6.5005,6.4997,6.5001,6.5009,6.5016,6.5047,6.5083,6.5051,6.5053,6.5061,6.5117,6.5131,6.5136,6.5183,6.516,6.5163,6.5165,6.5166,6.5256,6.5257,0,0,0,0,0,0,6.4911,6.4923,6.5003,6.5007,6.4961,6.5011,6.5019,6.5037,6.5082,6.5089,6.5061,6.5062,6.5126,6.5133,6.5139,6.5174,6.5164,6.5166,6.5168,6.5256,6.5257,6.5257,0,0,0,0,0,0,6.4908,6.4917,6.5,6.4966,6.4977,6.5013,6.5032,6.5038,6.5053,6.509,6.5097,6.5069,6.5126,6.5134,6.5167,6.5177,6.5168,6.5171,6.5255,6.5256,6.5257,6.5243,0,0,0,0,0,0,6.4905,6.4916,6.4925,6.4966,6.4979,6.5027,6.5033,6.504,6.5058,6.506,6.51,6.5106,6.5127,6.5163,6.517,6.5181,6.5173,6.5255,6.5256,6.5257,6.5243,6.5243,6.5244,0,0,0,0,0,6.4901,6.4917,6.4926,6.4935,6.4991,6.5027,6.5034,6.5058,6.5059,6.5069,6.5094,6.5105,6.5174,6.5166,6.5175,6.5186,6.5254,6.5255,6.5257,6.5243,6.5243,6.5244,0,0,0,0,0,0,6.4876,6.4923,6.4933,6.4963,6.4991,6.5031,6.5045,6.5057,6.5086,6.5086,6.5114,6.5123,6.5155,6.5174,6.5163,6.5215,6.5215,6.5218,6.5202,6.5202,6.5203,6.5198,6.5176,0,0,0,0,0,6.4874,6.4899,6.4939,6.4962,6.4976,6.5008,6.5024,6.5041,6.5071,6.5083,6.511,6.5139,6.5168,6.5186,6.5214,6.5246,6.5257,6.5259,6.5259,6.5259,6.5262,6.5284,6.5286,6.5261,6.5261,6.5261,0,0,6.487,6.4899,6.4913,6.4958,6.4981,6.5008,6.5018,6.5044,6.5065,6.5087,6.5121,6.5141,6.5176,6.5209,6.5225,6.5226,6.5271,6.5261,6.5261,6.5263,6.5285,6.5288,6.529,6.5262,6.5262,6.5262,0,0,6.4876,6.49,6.4923,6.4948,6.4984,6.5006,6.5012,6.5052,6.5067,6.5102,6.512,6.5145,6.5193,6.5219,6.5237,6.5259,6.5271,6.5267,6.5269,6.5291,6.5293,6.5295,6.5305,6.5308,6.5269,6.5269,6.5269,0,6.4867,6.4907,6.4933,6.4961,6.4982,6.5004,6.5029,6.5052,6.5095,6.511,6.511,6.5174,6.5199,6.524,6.5246,6.526,6.5269,6.5263,6.529,6.5292,6.5295,6.5305,6.5308,6.5269,6.5269,6.5269,6.5269,0,6.4895,6.4924,6.4938,6.4982,6.5004,6.503,6.5061,6.5081,6.5096,6.5119,6.5156,6.5187,6.5224,6.5234,6.5248,6.5279,6.5279,6.5284,6.5285,6.5296,6.5306,6.531,6.5268,6.5268,6.5268,6.5268,0,0,6.4886,6.4947,6.4952,6.4974,6.5017,6.504,6.5069,6.5106,6.5124,6.5154,6.518,6.5222,6.5229,6.5251,6.5269,6.5287,6.5306,6.5291,6.5292,6.5295,6.5346,6.5342,6.5346,6.5314,6.5315,6.5316,6.5344,0,6.49,6.4952,6.4978,6.5019,6.5048,6.5071,6.5097,6.5127,6.515,6.5178,6.5203,6.5234,6.5239,6.5253,6.5272,6.5299,6.5317,6.5298,6.5341,6.5342,6.5333,6.5351,6.5347,6.5371,6.5347,6.5348,6.5349,0,6.4922,6.4955,6.4999,6.5044,6.5057,6.5079,6.5118,6.5143,6.518,6.5196,6.5222,6.524,6.5273,6.5272,6.5319,6.5306,6.5325,6.5342,6.5343,6.5349,6.5346,6.5359,6.5379,6.5384,6.5355,6.5354,6.5354,0,6.4914,6.4969,6.5004,6.5021,6.5073,6.5089,6.5112,6.5148,6.517,6.5204,6.5219,6.5256,6.5276,6.5305,6.5334,6.533,6.538,6.538,6.5396,6.5395,6.5405,6.5404,6.543,6.5415,6.5415,6.5415,6.5415,0,6.4928,6.4955,6.5001,6.5022,6.5055,6.5086,6.5117,6.5141,6.5174,6.5202,6.5224,6.525,6.5286,6.5317,6.5339,6.5377,6.5386,6.5401,6.5407,6.54,6.5398,6.5413,6.5413,6.5416,6.5416,6.5415,6.5415,0,6.4924,6.4956,6.4996,6.5043,6.5056,6.5078,6.5119,6.5142,6.5167,6.5202,6.5212,6.5252,6.529,6.5322,6.5371,6.5387,6.5427,6.5433,6.5415,6.5418,6.5433,6.5432,6.5471,6.5479,6.5456,6.5457,6.5457,0,6.4931,6.4953,6.5004,6.5025,6.5047,6.508,6.5104,6.5136,6.516,6.5206,6.5224,6.5264,6.5298,6.5358,6.5392,6.5431,6.5439,6.545,6.5445,6.5439,6.5442,6.5441,6.5445,6.5451,6.5451,6.5451,6.5451,0,6.4941,6.4957,6.499,6.5031,6.5059,6.5091,6.5125,6.5141,6.518,6.5206,6.5246,6.5273,6.5325,6.5366,6.5409,6.5434,6.545,6.5453,6.5459,6.5452,6.5442,6.5451,6.5418,6.5451,6.5451,6.5451,6.5451,6.5451,6.4944,6.4966,6.5007,6.5045,6.5074,6.5106,6.5131,6.516,6.5194,6.524,6.5258,6.53,6.534,6.54,6.5425,6.546,6.5461,6.5469,6.5472,6.5474,6.5474,6.5436,6.5467,6.5467,6.5467,6.5467,6.5467,0,6.4958,6.4986,6.502,6.5068,6.5099,6.5112,6.5151,6.5176,6.5213,6.5249,6.5283,6.5331,6.5372,6.541,6.5453,6.5473,6.5482,6.5484,6.5483,6.549,6.5469,6.546,6.5476,6.5476,6.5476,6.5476,6.5476,6.5476,6.4968,6.5008,6.5029,6.5084,6.5112,6.5154,6.5176,6.5207,6.5236,6.5289,6.5324,6.5349,6.5387,6.5434,6.5473,6.5483,6.5499,6.5499,6.5512,6.5492,6.549,6.5489,6.5482,6.5502,6.5502,6.553,6.553,6.553]}]]